Welcome to the New NWS' Forecast!
Most changes are behind the scenes, but click here for differences you might notice.
Latest weather observations around

Huntsville, Huntsville International / Jones Field (KHSV)

Using English Units (Switch to International System of Units)
Date/ Time (CDT) Wind (mph) Vis. (mi) Weather Sky Cond. Temp (°F) Rel. Humidity Wind Chill (°F) Heat Index (°F) Pressure Precip. (in)
Air Dwpt 6 hour Altimeter (inHg) Sea level (inHg) 1 hr 3 hr 6 hr
Max Min
Oct 23 01:53 Calm 10 Clear CLR 46 44     93%     30.23 30.22      
Oct 23 00:53 Calm 10 Clear CLR 46 44     93%     30.23 30.23      
Oct 22 23:53 SE 3 10 Partly Cloudy SCT250 47 45     93% 46   30.24 30.23      
Oct 22 22:53 ENE 3 10 Mostly Cloudy BKN250 49 46     90% 48   30.24 30.23      
Oct 22 21:53 Calm 10 Mostly Cloudy BKN250 50 45     83%     30.23 30.22      
Oct 22 20:53 ESE 3 10 Mostly Cloudy BKN250 53 46     77%     30.22 30.22      
Oct 22 19:53 SSE 6 10 Mostly Cloudy FEW150 BKN250 52 46     80%     30.21 30.21      
Oct 22 18:53 SE 5 10 Mostly Cloudy FEW150 BKN250 55 46     72%     30.2 30.2      
Oct 22 17:53 S 6 10 Mostly Cloudy FEW150 BKN250 60 44     55%     30.19 30.19      
Oct 22 16:53 S 7 10 Mostly Cloudy FEW150 BKN250 65 41     42%     30.2 30.19      
Oct 22 15:53 7 10 Partly Cloudy FEW150 SCT250 68 38     33%     30.2 30.2      
Oct 22 14:53 SSE 8 10 Partly Cloudy FEW150 SCT250 68 39     35%     30.21 30.2      
Oct 22 13:53 SE 7 10 Partly Cloudy FEW150 SCT250 66 38     36%     30.22 30.22      
Oct 22 12:53 SE 6 10 Partly Cloudy FEW150 SCT250 65 41     42%     30.26 30.25      
Oct 22 11:53 6 10 Partly Cloudy FEW150 SCT250 63 40     43%     30.29 30.29      
Oct 22 10:53 S 7 10 Clear   61 42     50%     30.3 30.3      
Oct 22 09:53 SSE 5 10 Partly Cloudy SCT250 53 44     71%     30.31 30.31      
Oct 22 08:53 SE 3 10 Partly Cloudy SCT250 47 42     83% 46   30.32 30.32      
Oct 22 07:53 Calm 10 Mostly Clear FEW250 41 39     93%     30.31 30.31      
Oct 22 06:53 Calm 10 Mostly Clear FEW250 38 36     92%     30.28 30.28      
Oct 22 05:53 Calm 10 Clear CLR 37 36     96%     30.27 30.27      
Oct 22 04:53 Calm 10 Clear CLR 37 36     96%     30.25 30.25      
Oct 22 03:53 Calm 10 Clear CLR 37 36     96%     30.24 30.24      
Oct 22 02:53 Calm 9 Clear CLR 39 37     93%     30.24 30.24      
Oct 22 01:53 E 5 10 Clear CLR 40 38     93% 37   30.23 30.23      
Oct 22 00:53 SE 7 10 Clear CLR 39 38     96% 34   30.24 30.24      
Oct 21 23:53 Calm 10 Clear CLR 40 37     89%     30.27 30.27      
Oct 21 22:53 WSW 3 10 Clear CLR 41 37     86% 39   30.27 30.27      
Oct 21 21:53 N 5 10 Clear CLR 45 37     74% 43   30.26 30.27      
Oct 21 20:53 N 5 10 Clear CLR 47 37     68% 45   30.26 30.26      
Oct 21 19:53 N 6 10 Clear CLR 49 37     63% 46   30.26 30.26      
Oct 21 18:53 N 5 10 Clear CLR 52 35     52%     30.26 30.26      
Oct 21 17:53 N 8 10 Clear CLR 55 35     47%     30.25 30.25      
Oct 21 16:53 NNE 6 10 Clear CLR 60 32     35%     30.25 30.24      
Oct 21 15:53 N 10 10 Clear CLR 61 31     32%     30.25 30.25      
Oct 21 14:53 N 7 10 Clear CLR 60 30     32%     30.26 30.26      
Oct 21 13:53 NNE 11 10 Clear CLR 59 31     34%     30.29 30.28      
Oct 21 12:53 NE 10 10 Clear CLR 57 32     39%     30.31 30.31      
Oct 21 11:53 NE 11 10 Clear CLR 54 31     41%     30.34 30.34      
Oct 21 10:53 NE 11 10 Clear CLR 51 33     50%     30.35 30.35      
Oct 21 09:53 NE 11 10 Clear CLR 47 31     53% 42   30.35 30.35      
Oct 21 08:53 NE 17 10 Clear CLR 43 31     62% 35   30.35 30.35      
Oct 21 07:53 NNE 13 10 Clear CLR 41 30     65% 34   30.34 30.34      
Oct 21 06:53 NNE 11 10 Clear CLR 38 29     70% 30   30.32 30.32      
Oct 21 05:53 NNE 11 10 Clear CLR 39 29     67% 32   30.3 30.3      
Oct 21 04:53 N 10 10 Clear CLR 41 27     57% 35   30.28 30.27      
Oct 21 03:53 N 11 10 Clear CLR 43 28     55% 37   30.25 30.24      
Oct 21 02:53 N 14 10 Clear CLR 46 30     53% 40   30.24 30.23      
Oct 21 01:53 N 11 10 Clear CLR 49 32     52% 44   30.22 30.21      
Oct 21 00:53 NNE 11 10 Clear CLR 51 41     68%     30.2 30.19      
Oct 20 23:53 N 8 10 Clear CLR 53 47     80%     30.18 30.17      
Oct 20 22:53 NW 6 10 Clear CLR 53 50     89%     30.16 30.16      
Oct 20 21:53 NW 11 10 Partly Cloudy SCT250 56 50     80%     30.16 30.16      
Oct 20 20:53 WNW 5 10 Mostly Cloudy BKN250 57 52     83%     30.14 30.13      
Oct 20 19:53 WNW 6 10 Mostly Cloudy BKN250 58 53     84%     30.12 30.11      
Oct 20 18:53 WNW 7 10 Mostly Cloudy FEW027 BKN250 59 53     81%     30.1 30.09      
Oct 20 17:53 NW 10 10 Mostly Cloudy FEW027 BKN250 62 52     70%     30.07 30.06      
Oct 20 16:53 WNW 8 10 Partly Cloudy FEW025 SCT250 65 54     68%     30.06 30.04      
Oct 20 15:53 NNW 13 10 Mostly Cloudy SCT025 BKN031 67 57     71%     30.06 30.05      
Oct 20 15:50 NW 13 10 Mostly Cloudy FEW023 BKN031 66 57     73%     30.06        
Oct 20 14:53 NNW 10 10 Mostly Cloudy BKN027 67 57     71%     30.05 30.03      
Oct 20 13:53 NW 9 10 Cloudy OVC023 66 57     73%     30.06 30.04      
Oct 20 12:53 WNW 9 10 Mostly Cloudy BKN017 64 56     75%     30.08 30.07     0
Oct 20 12:18 3 10 Mostly Cloudy BKN015 62 57     84%     30.08        
Oct 20 11:53 NNW 10 10 Cloudy BKN013 OVC021 60 57     90%     30.09 30.08      
Oct 20 10:53 NW 8 10 Cloudy BKN010 OVC015 59 57     93%     30.11 30.09 0    
Oct 20 10:46 WNW 7 10 Cloudy BKN008 OVC015 59 57     93%     30.11   0    
Oct 20 10:39 WNW 7 10 Cloudy SCT008 OVC015 59 57     93%     30.11   0    
Oct 20 10:24 NW 7 10 Light Rain BKN008 OVC013 58 58     100%     30.11   0    
Oct 20 09:53 NW 3 10 Light Rain SCT006 OVC012 58 57     97%     30.11 30.09 0 0  
Oct 20 09:44 WNW 6 3 Light Rain and Fog/Mist BKN006 BKN050 OVC065 58 57     97%     30.11   0    
Oct 20 09:17 WSW 3 6 Light Rain and Fog/Mist BKN008 OVC060 58 57     97%     30.09   0    
Oct 20 08:57 WNW 6 7 Light Rain FEW006 BKN014 OVC060 58 57     97%     30.1   0    
Oct 20 08:53 NW 6 6 Light Rain and Fog/Mist SCT011 BKN050 OVC060 58 57     97%     30.09 30.08 0    
Oct 20 08:26 NW 3 6 Light Rain and Fog/Mist SCT007 SCT040 OVC070 58 57     97%     30.08   0    
Oct 20 08:03 Calm 10 Light Rain BKN007 BKN043 OVC080 57 57     100%     30.08   0    
Oct 20 07:53 WNW 3 5 Light Rain and Fog/Mist SCT005 BKN036 OVC080 57 57     100%     30.08 30.06 0    
Oct 20 07:46 NNW 3 3 Light Rain and Fog/Mist SCT005 BKN036 OVC085 57 57     100%     30.07   0    
Oct 20 07:19 WNW 5 10 Light Rain BKN006 BKN020 OVC031 57 57     100%     30.09   0    
Oct 20 07:11 Calm 8 Light Rain SCT004 SCT018 OVC031 57 57     100%     30.07   0    
Oct 20 07:04 Calm 4 Light Rain and Fog/Mist SCT007 BKN018 OVC032 57 57     100%     30.07   0    
Oct 20 06:55 W 3 2 Rain and Fog/Mist FEW004 BKN009 OVC026 57 57     100%     30.08   0    
Oct 20 06:53 W 3 1.75 Rain and Fog/Mist BKN006 BKN016 OVC024 57 57     100%     30.08 30.06     0
Oct 20 06:45 NW 6 1.75 Rain and Fog/Mist BKN008 BKN015 OVC036 57 57     100%     30.08        
Oct 20 06:36 W 5 2 Rain and Fog/Mist SCT006 BKN015 OVC050 58 57     97%     30.08        
Oct 20 06:25 Calm 3 Rain and Fog/Mist FEW007 BKN027 OVC060 58 57     97%     30.07        
Oct 20 05:53 NW 6 9 Light Rain FEW014 OVC024 58 57     97%     30.06 30.05 0    
Oct 20 04:53 NNW 3 10 Cloudy FEW012 SCT016 OVC029 59 58     96%     30.07 30.05 0    
Oct 20 04:44 NW 5 10 Cloudy FEW012 OVC029 59 58     96%     30.07   0    
Oct 20 03:53 NNW 7 7 Light Rain OVC032 60 58     93%     30.06 30.04 0 0  
Oct 20 02:53 NNW 5 10 Light Rain OVC035 65 62     90%     30.05 30.03 0    
Oct 20 01:53 Calm 10 Light Rain BKN045 BKN060 OVC070 65 61     87%     30.05 30.03 0    
Oct 20 00:53 Calm 10 Cloudy BKN060 OVC070 65 62     90%     30.07 30.05      
Oct 19 23:53 SSW 3 10 Cloudy OVC055 66 61     84%     30.08 30.06      
Oct 19 22:53 WSW 3 10 Cloudy BKN060 OVC090 66 58     75%     30.1 30.09      
Oct 19 21:53 SW 5 10 Cloudy OVC090 66 60     81%     30.11 30.09      
Oct 19 20:53 WSW 5 10 Cloudy OVC200 66 60     81%     30.12 30.1      
Oct 19 19:53 SSW 3 10 Cloudy OVC200 68 60     76%     30.12 30.11      
Oct 19 18:53 S 5 10 Mostly Cloudy BKN150 BKN240 68 61     78%     30.11 30.1      
Oct 19 17:53 SSW 6 10 Mostly Cloudy BKN150 BKN240 72 59     64%   72 30.11 30.1      
Oct 19 16:53 SSW 5 10 Mostly Cloudy SCT160 BKN250 75 58     55%   75 30.12 30.11      
Oct 19 15:53 WSW 9 10 Mostly Cloudy BKN160 76 56     50%   76 30.13 30.11      
Oct 19 14:53 6 10 Mostly Cloudy FEW044 SCT180 BKN250 77 58     52%   77 30.14 30.13      
Oct 19 13:53 SSW 7 10 Mostly Cloudy FEW040 FEW150 BKN250 75 58     55%   75 30.17 30.16      
Oct 19 12:53 SW 9 10 Mostly Cloudy FEW030 BKN250 75 60     60%   75 30.2 30.19      
Oct 19 11:53 7 10 Mostly Cloudy FEW030 BKN250 73 60     64%   73 30.24 30.23      
Oct 19 10:53 S 9 10 Mostly Cloudy BKN250 69 58     68%     30.26 30.25      
Oct 19 09:53 SE 6 10 Mostly Cloudy BKN250 63 53     70%     30.28 30.27      
Oct 19 08:53 ESE 7 10 Mostly Cloudy BKN250 58 52     81%     30.29 30.28      
Oct 19 07:53 ESE 6 10 Mostly Cloudy BKN250 53 50     89%     30.28 30.27      
Oct 19 06:53 E 7 10 Mostly Cloudy BKN250 50 47     89%     30.27 30.27      
Oct 19 05:53 E 3 10 Mostly Cloudy BKN250 50 47     89%     30.28 30.27      
Oct 19 04:53 Calm 10 Clear CLR 48 46     93%     30.28 30.27      
Oct 19 03:53 NE 3 10 Clear CLR 48 46     93% 47   30.28 30.27      
Oct 19 02:53 Calm 10 Clear   47 46     97%     30.3 30.29      
Oct 19 01:53 Calm 10 Clear CLR 49 46     90%     30.3 30.29      
Oct 19 00:53 Calm 10 Clear CLR 50 45     83%     30.32 30.31      
Oct 18 23:53 Calm 10 Clear CLR 52 44     74%     30.33 30.32      
Oct 18 22:53 Calm 10 Clear CLR 52 45     77%     30.33 30.33      
Oct 18 21:53 NE 6 10 Clear CLR 55 44     66%     30.34 30.34      
Oct 18 20:53 NNE 7 10 Clear CLR 56 45     67%     30.34 30.34      
Oct 18 19:53 NNE 6 10 Mostly Clear FEW250 56 46     69%     30.34 30.33      
Oct 18 18:53 NNE 6 10 Mostly Clear FEW150 FEW250 58 47     67%     30.33 30.32      
Oct 18 17:53 Calm 10 Partly Cloudy FEW150 SCT250 66 44     45%     30.33 30.32      
Oct 18 16:53 ESE 5 10 Mostly Cloudy SCT150 BKN250 67 41     39%     30.33 30.32      
Oct 18 15:53 NE 5 10 Mostly Cloudy SCT150 BKN250 69 41     36%     30.33 30.32      
Oct 18 14:53 N 3 10 Mostly Cloudy SCT150 BKN250 70 44     39%     30.33 30.32      
Oct 18 13:53 NNE 9 10 Mostly Cloudy BKN150 BKN250 67 46     47%     30.36 30.35      
Oct 18 12:53 N 8 10 Mostly Cloudy BKN150 BKN250 64 45     50%     30.39 30.38      
Oct 18 11:53 N 6 10 Mostly Cloudy BKN150 61 44     54%     30.41 30.4      
Oct 18 10:53 NE 5 10 Mostly Cloudy BKN150 BKN250 59 44     58%     30.42 30.41      
Oct 18 09:53 NNE 9 10 Mostly Cloudy SCT200 BKN250 56 45     67%     30.43 30.42      
Oct 18 08:53 NNE 7 10 Mostly Cloudy BKN200 BKN250 54 44     69%     30.42 30.41      
May 15 04:53 Calm 10 Mostly Cloudy BKN065 70 68     93%     29.98 29.96      
May 14 10:53 N 8 10 Mostly Clear FEW050 88 64     45%   89 30.07 30.04      
May 11 20:53 S 8 10 Clear CLR 75 60     60%   75 30.05 30.03      
May 11 16:53 SW 11 10 Mostly Clear FEW090 89 57     34%   88 30.04 30.01      
Jun 12 04:53 SE 7 10 Partly Cloudy SCT025 72 70     93%   73 30.13 30.1      
Jun 11 22:53 ESE 3 10 Clear CLR 78 70     76%   79 30.12 30.09      
Jun 10 17:53 S 10 10 Partly Cloudy FEW060 SCT 85 61     45%   85 30.03 30.01      
Jun 09 19:53 W 3 10 Mostly Clear FEW080 77 60     56%   77   29.92      
Jun 08 19:53 NNW 6 10 Partly Cloudy SCT250 73 56     55%   73 29.89 29.87      
Jun 07 10:53 NE 17 10 Mostly Clear FEW050 FEW250 78 53     42%   78 29.89 29.87